owner,sensor,date,latitude,longitude,vertical_datum,wind_speed,wind_to_direction,wind_speed_of_gust,qcFlag 
TABS,ioos:station:wmo:42047:1,2019-04-01T03:00:00Z,27.8966,-93.5973,4.0,8.92,38.2,11.13,'1111122,1111122,1111122' 
TABS,ioos:station:wmo:42047:1,2019-04-01T04:00:00Z,27.8966,-93.5973,4.0,9.01,28.0,11.04,'1111122,1111122,1111122' 
TABS,ioos:station:wmo:42047:1,2019-04-01T06:00:00Z,27.8966,-93.5973,4.0,8.62,33.6,10.61,'1111122,1111122,1111122' 
TABS,ioos:station:wmo:42047:1,2019-04-01T07:00:00Z,27.8966,-93.5973,4.0,8.3,46.0,10.24,'1111122,1111122,1111122' 
TABS,ioos:station:wmo:42047:1,2019-04-01T08:00:00Z,27.8966,-93.5973,4.0,8.38,57.5,10.51,'1111122,1111122,1111122' 
TABS,ioos:station:wmo:42047:1,2019-04-01T09:00:00Z,27.8966,-93.5973,4.0,7.82,55.6,9.78,'1111122,1111122,1111122' 
TABS,ioos:station:wmo:42047:1,2019-04-01T10:00:00Z,27.8966,-93.5973,4.0,8.01,54.9,9.72,'1111122,1111122,1111122' 
TABS,ioos:station:wmo:42047:1,2019-04-01T11:00:00Z,27.8966,-93.5973,4.0,7.7,49.4,9.34,'1111122,1111122,1111122' 
TABS,ioos:station:wmo:42047:1,2019-04-01T12:00:00Z,27.8966,-93.5973,4.0,6.9,47.0,8.86,'1111122,1111122,1111122' 
TABS,ioos:station:wmo:42047:1,2019-04-01T13:00:00Z,27.8966,-93.5973,4.0,6.95,49.0,9.03,'1111122,1111122,1111122' 
TABS,ioos:station:wmo:42047:1,2019-04-01T14:00:00Z,27.8966,-93.5973,4.0,5.3,46.5,7.41,'1111122,1111122,1111122' 
TABS,ioos:station:wmo:42047:1,2019-04-01T15:00:00Z,27.8966,-93.5973,4.0,7.41,43.2,9.12,'1111122,1111122,1111122' 
TABS,ioos:station:wmo:42047:1,2019-04-01T16:00:00Z,27.8966,-93.5973,4.0,6.67,44.1,8.2,'1111122,1111122,1111122' 
TABS,ioos:station:wmo:42047:1,2019-04-01T17:00:00Z,27.8966,-93.5973,4.0,6.22,48.1,7.79,'1111122,1111122,1111122' 
TABS,ioos:station:wmo:42047:1,2019-04-01T18:00:00Z,27.8966,-93.5973,4.0,4.7,42.2,5.78,'1111122,1111122,1111122' 
TABS,ioos:station:wmo:42047:1,2019-04-01T19:00:00Z,27.8966,-93.5973,4.0,4.75,21.6,6.4,'1111122,1111122,1111122' 
TABS,ioos:station:wmo:42047:1,2019-04-01T20:00:00Z,27.8966,-93.5973,4.0,4.04,19.0,5.27,'1111122,1111122,1111122' 
TABS,ioos:station:wmo:42047:1,2019-04-01T21:00:00Z,27.8966,-93.5973,4.0,4.66,350.7,6.27,'1111122,1111122,1111122' 
TABS,ioos:station:wmo:42047:1,2019-04-01T22:00:00Z,27.8966,-93.5973,4.0,5.97,349.8,7.55,'1111122,1111122,1111122' 
TABS,ioos:station:wmo:42047:1,2019-04-01T23:00:00Z,27.8966,-93.5973,4.0,8.14,355.3,9.59,'1111122,1111122,1111122' 
TABS,ioos:station:wmo:42047:1,2019-04-01T23:30:00Z,27.8966,-93.5973,4.0,7.99,349.0,9.69,'1111122,1111122,1111122' 
TABS,ioos:station:wmo:42047:1,2019-04-02T05:30:00Z,27.8966,-93.5973,4.0,3.7,24.6,5.27,'1111122,1111122,1111122' 
TABS,ioos:station:wmo:42047:1,2019-04-02T06:00:00Z,27.8966,-93.5973,4.0,4.41,24.3,5.81,'1111122,1111122,1111122' 
TABS,ioos:station:wmo:42047:1,2019-04-02T07:00:00Z,27.8966,-93.5973,4.0,5.64,14.7,6.97,'1111122,1111122,1111122' 
TABS,ioos:station:wmo:42047:1,2019-04-02T08:00:00Z,27.8966,-93.5973,4.0,5.84,8.3,7.82,'1111122,1111122,1111122' 
TABS,ioos:station:wmo:42047:1,2019-04-02T09:00:00Z,27.8966,-93.5973,4.0,5.41,7.9,7.39,'1111122,1111122,1111122' 
TABS,ioos:station:wmo:42047:1,2019-04-02T10:00:00Z,27.8966,-93.5973,4.0,7.58,8.8,9.2,'1111122,1111122,1111122' 
TABS,ioos:station:wmo:42047:1,2019-04-02T11:00:00Z,27.8966,-93.5973,4.0,7.12,31.8,9.03,'1111122,1111122,1111122' 
TABS,ioos:station:wmo:42047:1,2019-04-02T12:00:00Z,27.8966,-93.5973,4.0,6.61,31.3,8.17,'1111122,1111122,1111122' 
TABS,ioos:station:wmo:42047:1,2019-04-02T13:00:00Z,27.8966,-93.5973,4.0,5.77,43.5,7.49,'1111122,1111122,1111122' 
TABS,ioos:station:wmo:42047:1,2019-04-02T14:00:00Z,27.8966,-93.5973,4.0,4.49,52.1,6.59,'1111122,1111122,1111122' 
TABS,ioos:station:wmo:42047:1,2019-04-02T15:00:00Z,27.8966,-93.5973,4.0,4.16,53.5,5.47,'1111122,1111122,1111122' 
TABS,ioos:station:wmo:42047:1,2019-04-02T16:00:00Z,27.8966,-93.5973,4.0,4.68,42.3,6.91,'1111122,1111122,1111122' 
TABS,ioos:station:wmo:42047:1,2019-04-02T17:00:00Z,27.8966,-93.5973,4.0,4.65,51.6,6.25,'1111122,1111122,1111122' 
TABS,ioos:station:wmo:42047:1,2019-04-02T18:00:00Z,27.8966,-93.5973,4.0,5.06,67.4,6.12,'1111122,1111122,1111122' 
TABS,ioos:station:wmo:42047:1,2019-04-02T18:30:00Z,27.8966,-93.5973,4.0,4.35,63.0,6.06,'1111122,1111122,1111122' 
TABS,ioos:station:wmo:42047:1,2019-04-02T20:00:00Z,27.8966,-93.5973,4.0,5.01,59.9,6.49,'1111122,1111122,1111122' 
TABS,ioos:station:wmo:42047:1,2019-04-02T20:30:00Z,27.8966,-93.5973,4.0,5.19,56.6,6.49,'1111122,1111122,1111122' 
TABS,ioos:station:wmo:42047:1,2019-04-02T22:00:00Z,27.8966,-93.5973,4.0,4.91,78.8,6.19,'1111122,1111122,1111122' 
TABS,ioos:station:wmo:42047:1,2019-04-02T23:00:00Z,27.8966,-93.5973,4.0,5.09,82.8,7.04,'1111122,1111122,1111122' 
TABS,ioos:station:wmo:42047:1,2019-04-02T23:30:00Z,27.8966,-93.5973,4.0,5.18,82.5,6.81,'1111122,1111122,1111122' 
TABS,ioos:station:wmo:42047:1,2019-04-03T04:00:00Z,27.8966,-93.5973,4.0,5.97,104.0,7.38,'1111122,1111122,1111122' 
TABS,ioos:station:wmo:42047:1,2019-04-03T05:00:00Z,27.8966,-93.5973,4.0,6.38,96.3,7.76,'1111122,1111122,1111122' 
TABS,ioos:station:wmo:42047:1,2019-04-03T06:00:00Z,27.8966,-93.5973,4.0,6.61,104.0,8.21,'1111122,1111122,1111122' 
TABS,ioos:station:wmo:42047:1,2019-04-03T07:00:00Z,27.8966,-93.5973,4.0,6.86,111.2,8.72,'1111122,1111122,1111122' 
TABS,ioos:station:wmo:42047:1,2019-04-03T08:00:00Z,27.8966,-93.5973,4.0,6.73,114.6,8.27,'1111122,1111122,1111122' 
TABS,ioos:station:wmo:42047:1,2019-04-03T09:00:00Z,27.8966,-93.5973,4.0,6.65,122.2,7.91,'1111122,1111122,1111122' 
TABS,ioos:station:wmo:42047:1,2019-04-03T10:00:00Z,27.8966,-93.5973,4.0,6.88,131.6,8.15,'1111122,1111122,1111122' 
TABS,ioos:station:wmo:42047:1,2019-04-03T11:00:00Z,27.8966,-93.5973,4.0,7.36,123.6,8.8,'1111122,1111122,1111122' 
TABS,ioos:station:wmo:42047:1,2019-04-03T12:00:00Z,27.8966,-93.5973,4.0,7.27,125.0,8.3,'1111122,1111122,1111122' 
TABS,ioos:station:wmo:42047:1,2019-04-03T13:00:00Z,27.8966,-93.5973,4.0,7.12,120.6,8.21,'1111122,1111122,1111122' 
TABS,ioos:station:wmo:42047:1,2019-04-03T13:30:00Z,27.8966,-93.5973,4.0,7.63,123.0,8.74,'1111122,1111122,1111122' 
TABS,ioos:station:wmo:42047:1,2019-04-03T15:00:00Z,27.8966,-93.5973,4.0,7.9,123.2,8.77,'1111122,1111122,1111122' 
TABS,ioos:station:wmo:42047:1,2019-04-03T16:00:00Z,27.8966,-93.5973,4.0,7.85,124.0,9.13,'1111122,1111122,1111122' 
TABS,ioos:station:wmo:42047:1,2019-04-03T17:00:00Z,27.8966,-93.5973,4.0,7.78,119.9,8.97,'1111122,1111122,1111122' 
TABS,ioos:station:wmo:42047:1,2019-04-03T18:00:00Z,27.8966,-93.5973,4.0,8.12,112.1,9.64,'1111122,1111122,1111122' 
TABS,ioos:station:wmo:42047:1,2019-04-03T19:00:00Z,27.8966,-93.5973,4.0,7.84,102.2,9.06,'1111122,1111122,1111122' 
TABS,ioos:station:wmo:42047:1,2019-04-03T20:00:00Z,27.8966,-93.5973,4.0,8.7,113.5,10.28,'1111122,1111122,1111122' 
TABS,ioos:station:wmo:42047:1,2019-04-03T21:00:00Z,27.8966,-93.5973,4.0,9.18,109.8,10.6,'1111122,1111122,1111122' 
TABS,ioos:station:wmo:42047:1,2019-04-03T22:00:00Z,27.8966,-93.5973,4.0,11.31,116.8,13.79,'1111122,1111122,1111122' 
TABS,ioos:station:wmo:42047:1,2019-04-03T23:00:00Z,27.8966,-93.5973,4.0,11.74,99.0,13.05,'1111122,1111122,1111122' 
TABS,ioos:station:wmo:42047:1,2019-04-03T23:30:00Z,27.8966,-93.5973,4.0,11.21,112.4,13.12,'1111122,1111122,1111122' 
TABS,ioos:station:wmo:42047:1,2019-04-04T04:00:00Z,27.8966,-93.5973,4.0,7.54,123.9,9.29,'1111122,1111122,1111122' 
TABS,ioos:station:wmo:42047:1,2019-04-04T05:00:00Z,27.8966,-93.5973,4.0,8.09,124.2,9.29,'1111122,1111122,1111122' 
TABS,ioos:station:wmo:42047:1,2019-04-04T06:00:00Z,27.8966,-93.5973,4.0,7.07,128.3,8.23,'1111122,1111122,1111122' 
TABS,ioos:station:wmo:42047:1,2019-04-04T07:00:00Z,27.8966,-93.5973,4.0,6.63,137.3,7.64,'1111122,1111122,1111122' 
TABS,ioos:station:wmo:42047:1,2019-04-04T08:00:00Z,27.8966,-93.5973,4.0,7.07,139.1,8.41,'1111122,1111122,1111122' 
TABS,ioos:station:wmo:42047:1,2019-04-04T09:00:00Z,27.8966,-93.5973,4.0,7.31,144.8,8.2,'1111122,1111122,1111122' 
TABS,ioos:station:wmo:42047:1,2019-04-04T10:00:00Z,27.8966,-93.5973,4.0,6.58,150.0,7.86,'1111122,1111122,1111122' 
TABS,ioos:station:wmo:42047:1,2019-04-04T11:00:00Z,27.8966,-93.5973,4.0,6.46,156.5,7.68,'1111122,1111122,1111122' 
TABS,ioos:station:wmo:42047:1,2019-04-04T12:00:00Z,27.8966,-93.5973,4.0,8.18,168.0,9.83,'1111122,1111122,1111122' 
TABS,ioos:station:wmo:42047:1,2019-04-04T13:00:00Z,27.8966,-93.5973,4.0,7.84,165.2,8.91,'1111122,1111122,1111122' 
TABS,ioos:station:wmo:42047:1,2019-04-04T14:00:00Z,27.8966,-93.5973,4.0,5.92,156.6,6.93,'1111122,1111122,1111122' 
TABS,ioos:station:wmo:42047:1,2019-04-04T15:00:00Z,27.8966,-93.5973,4.0,5.57,152.9,6.58,'1111122,1111122,1111122' 
TABS,ioos:station:wmo:42047:1,2019-04-04T16:00:00Z,27.8966,-93.5973,4.0,5.78,148.1,6.53,'1111122,1111122,1111122' 
TABS,ioos:station:wmo:42047:1,2019-04-04T17:00:00Z,27.8966,-93.5973,4.0,6.93,149.0,7.59,'1111122,1111122,1111122' 
TABS,ioos:station:wmo:42047:1,2019-04-04T18:00:00Z,27.8966,-93.5973,4.0,6.03,148.7,7.23,'1111122,1111122,1111122' 
TABS,ioos:station:wmo:42047:1,2019-04-04T19:00:00Z,27.8966,-93.5973,4.0,4.09,155.9,4.78,'1111122,1111122,1111122' 
TABS,ioos:station:wmo:42047:1,2019-04-04T20:00:00Z,27.8966,-93.5973,4.0,3.9,157.0,4.45,'1111122,1111122,1111122' 
TABS,ioos:station:wmo:42047:1,2019-04-04T21:00:00Z,27.8966,-93.5973,4.0,3.64,153.2,4.13,'1111122,1111122,1111122' 
TABS,ioos:station:wmo:42047:1,2019-04-04T23:00:00Z,27.8966,-93.5973,4.0,5.19,153.8,6.34,'1111122,1111122,1111122' 
TABS,ioos:station:wmo:42047:1,2019-04-04T23:30:00Z,27.8966,-93.5973,4.0,5.06,160.1,5.86,'1111122,1111122,1111122' 
TABS,ioos:station:wmo:42047:1,2019-04-05T04:00:00Z,27.8966,-93.5973,4.0,4.85,156.3,5.64,'1111122,1111122,1111122' 
TABS,ioos:station:wmo:42047:1,2019-04-05T05:00:00Z,27.8966,-93.5973,4.0,3.73,164.6,4.3,'1111122,1111122,1111122' 
TABS,ioos:station:wmo:42047:1,2019-04-05T05:30:00Z,27.8966,-93.5973,4.0,3.85,166.7,4.44,'1111122,1111122,1111122' 
TABS,ioos:station:wmo:42047:1,2019-04-05T08:00:00Z,27.8966,-93.5973,4.0,2.76,165.9,3.21,'1111122,1111122,1111122' 
TABS,ioos:station:wmo:42047:1,2019-04-05T09:00:00Z,27.8966,-93.5973,4.0,5.55,170.2,6.22,'1111122,1111122,1111122' 
TABS,ioos:station:wmo:42047:1,2019-04-05T11:00:00Z,27.8966,-93.5973,4.0,5.94,165.3,6.59,'1111122,1111122,1111122' 
TABS,ioos:station:wmo:42047:1,2019-04-05T12:00:00Z,27.8966,-93.5973,4.0,5.15,164.6,5.87,'1111122,1111122,1111122' 
TABS,ioos:station:wmo:42047:1,2019-04-05T13:00:00Z,27.8966,-93.5973,4.0,3.53,160.5,4.53,'1111122,1111122,1111122' 
TABS,ioos:station:wmo:42047:1,2019-04-05T14:00:00Z,27.8966,-93.5973,4.0,5.84,161.9,6.77,'1111122,1111122,1111122' 
TABS,ioos:station:wmo:42047:1,2019-04-05T15:00:00Z,27.8966,-93.5973,4.0,5.51,170.6,6.47,'1111122,1111122,1111122' 
TABS,ioos:station:wmo:42047:1,2019-04-05T16:00:00Z,27.8966,-93.5973,4.0,5.46,164.5,6.37,'1111122,1111122,1111122' 
TABS,ioos:station:wmo:42047:1,2019-04-05T17:00:00Z,27.8966,-93.5973,4.0,4.48,165.6,5.19,'1111122,1111122,1111122' 
TABS,ioos:station:wmo:42047:1,2019-04-05T18:00:00Z,27.8966,-93.5973,4.0,2.51,165.2,3.16,'1111122,1111122,1111122' 
TABS,ioos:station:wmo:42047:1,2019-04-05T19:00:00Z,27.8966,-93.5973,4.0,2.22,165.2,2.68,'1111122,1111122,1111122' 
TABS,ioos:station:wmo:42047:1,2019-04-05T19:30:00Z,27.8966,-93.5973,4.0,3.12,142.3,3.83,'1111122,1111122,1111122' 
TABS,ioos:station:wmo:42047:1,2019-04-05T21:00:00Z,27.8966,-93.5973,4.0,3.5,146.8,4.36,'1111122,1111122,1111122' 
TABS,ioos:station:wmo:42047:1,2019-04-05T22:00:00Z,27.8966,-93.5973,4.0,3.26,135.8,4.0,'1111122,1111122,1111122' 
TABS,ioos:station:wmo:42047:1,2019-04-05T23:00:00Z,27.8966,-93.5973,4.0,2.76,130.4,3.22,'1111122,1111122,1111122' 
TABS,ioos:station:wmo:42047:1,2019-04-05T23:30:00Z,27.8966,-93.5973,4.0,3.16,120.5,3.59,'1111122,1111122,1111122' 
TABS,ioos:station:wmo:42047:1,2019-04-06T05:00:00Z,27.8966,-93.5973,4.0,5.18,139.9,6.03,'1111122,1111122,1111122' 
TABS,ioos:station:wmo:42047:1,2019-04-06T06:00:00Z,27.8966,-93.5973,4.0,5.88,141.8,7.16,'1111122,1111122,1111122' 
TABS,ioos:station:wmo:42047:1,2019-04-06T07:00:00Z,27.8966,-93.5973,4.0,5.4,151.8,7.54,'1111122,1111122,1111122' 
TABS,ioos:station:wmo:42047:1,2019-04-06T08:00:00Z,27.8966,-93.5973,4.0,7.22,157.6,8.72,'1111122,1111122,1111122' 
TABS,ioos:station:wmo:42047:1,2019-04-06T09:00:00Z,27.8966,-93.5973,4.0,5.7,153.0,6.95,'1111122,1111122,1111122' 
TABS,ioos:station:wmo:42047:1,2019-04-06T10:00:00Z,27.8966,-93.5973,4.0,4.84,152.2,5.7,'1111122,1111122,1111122' 
TABS,ioos:station:wmo:42047:1,2019-04-06T11:00:00Z,27.8966,-93.5973,4.0,5.95,142.8,6.76,'1111122,1111122,1111122' 
TABS,ioos:station:wmo:42047:1,2019-04-06T12:00:00Z,27.8966,-93.5973,4.0,6.67,137.4,7.72,'1111122,1111122,1111122' 
TABS,ioos:station:wmo:42047:1,2019-04-06T13:00:00Z,27.8966,-93.5973,4.0,8.13,135.7,11.95,'1111122,1111122,1111122' 
TABS,ioos:station:wmo:42047:1,2019-04-06T14:00:00Z,27.8966,-93.5973,4.0,8.4,143.8,10.13,'1111122,1111122,1111122' 
TABS,ioos:station:wmo:42047:1,2019-04-06T15:00:00Z,27.8966,-93.5973,4.0,7.42,136.2,8.44,'1111122,1111122,1111122' 
TABS,ioos:station:wmo:42047:1,2019-04-06T16:00:00Z,27.8966,-93.5973,4.0,8.19,126.7,9.65,'1111122,1111122,1111122' 
TABS,ioos:station:wmo:42047:1,2019-04-06T17:00:00Z,27.8966,-93.5973,4.0,6.54,128.3,7.67,'1111122,1111122,1111122' 
TABS,ioos:station:wmo:42047:1,2019-04-06T17:30:00Z,27.8966,-93.5973,4.0,7.71,125.3,9.25,'1111122,1111122,1111122' 
TABS,ioos:station:wmo:42047:1,2019-04-06T19:00:00Z,27.8966,-93.5973,4.0,6.84,130.0,7.84,'1111122,1111122,1111122' 
TABS,ioos:station:wmo:42047:1,2019-04-06T19:30:00Z,27.8966,-93.5973,4.0,7.71,129.5,8.94,'1111122,1111122,1111122' 
TABS,ioos:station:wmo:42047:1,2019-04-06T21:00:00Z,27.8966,-93.5973,4.0,8.2,140.2,9.18,'1111122,1111122,1111122' 
TABS,ioos:station:wmo:42047:1,2019-04-06T22:00:00Z,27.8966,-93.5973,4.0,8.4,141.4,9.74,'1111122,1111122,1111122' 
TABS,ioos:station:wmo:42047:1,2019-04-06T23:00:00Z,27.8966,-93.5973,4.0,8.78,142.1,10.14,'1111122,1111122,1111122' 
TABS,ioos:station:wmo:42047:1,2019-04-06T23:30:00Z,27.8966,-93.5973,4.0,8.62,139.7,9.93,'1111122,1111122,1111122' 
TABS,ioos:station:wmo:42047:1,2019-04-07T04:00:00Z,27.8966,-93.5973,4.0,8.85,134.9,10.51,'1111122,1111122,1111122' 
TABS,ioos:station:wmo:42047:1,2019-04-07T05:00:00Z,27.8966,-93.5973,4.0,7.41,135.7,8.46,'1111122,1111122,1111122' 
TABS,ioos:station:wmo:42047:1,2019-04-07T06:00:00Z,27.8966,-93.5973,4.0,7.01,131.6,8.25,'1111122,1111122,1111122' 
TABS,ioos:station:wmo:42047:1,2019-04-07T07:00:00Z,27.8966,-93.5973,4.0,6.83,134.3,7.68,'1111122,1111122,1111122' 
TABS,ioos:station:wmo:42047:1,2019-04-07T08:00:00Z,27.8966,-93.5973,4.0,9.13,124.9,10.94,'1111122,1111122,1111122' 
TABS,ioos:station:wmo:42047:1,2019-04-07T09:00:00Z,27.8966,-93.5973,4.0,8.33,134.2,9.73,'1111122,1111122,1111122' 
TABS,ioos:station:wmo:42047:1,2019-04-07T10:00:00Z,27.8966,-93.5973,4.0,8.01,132.5,9.74,'1111122,1111122,1111122' 
TABS,ioos:station:wmo:42047:1,2019-04-07T11:00:00Z,27.8966,-93.5973,4.0,5.92,131.6,7.22,'1111122,1111122,1111122' 
TABS,ioos:station:wmo:42047:1,2019-04-07T12:00:00Z,27.8966,-93.5973,4.0,2.42,130.5,3.87,'1111122,1111122,1111122' 
TABS,ioos:station:wmo:42047:1,2019-04-07T13:00:00Z,27.8966,-93.5973,4.0,6.69,102.3,8.05,'1111122,1111122,1111122' 
TABS,ioos:station:wmo:42047:1,2019-04-07T14:00:00Z,27.8966,-93.5973,4.0,8.15,124.4,10.49,'1111122,1111122,1111122' 
TABS,ioos:station:wmo:42047:1,2019-04-07T15:00:00Z,27.8966,-93.5973,4.0,8.45,145.6,9.88,'1111122,1111122,1111122' 
TABS,ioos:station:wmo:42047:1,2019-04-07T16:00:00Z,27.8966,-93.5973,4.0,8.31,146.4,10.52,'1111122,1111122,1111122' 
TABS,ioos:station:wmo:42047:1,2019-04-07T17:00:00Z,27.8966,-93.5973,4.0,9.97,148.3,12.04,'1111122,1111122,1111122' 
TABS,ioos:station:wmo:42047:1,2019-04-07T18:00:00Z,27.8966,-93.5973,4.0,12.5,148.5,16.61,'1111122,1111122,1111122' 
TABS,ioos:station:wmo:42047:1,2019-04-07T19:00:00Z,27.8966,-93.5973,4.0,14.03,153.6,17.77,'1111122,1111122,1111122' 
TABS,ioos:station:wmo:42047:1,2019-04-07T20:00:00Z,27.8966,-93.5973,4.0,9.52,217.9,13.27,'1111122,1111122,1111122' 
TABS,ioos:station:wmo:42047:1,2019-04-07T21:00:00Z,27.8966,-93.5973,4.0,1.8,30.4,4.04,'1111122,1111122,1111122' 
TABS,ioos:station:wmo:42047:1,2019-04-07T22:00:00Z,27.8966,-93.5973,4.0,8.69,71.3,14.7,'1111122,1111122,1111122' 
TABS,ioos:station:wmo:42047:1,2019-04-07T23:00:00Z,27.8966,-93.5973,4.0,8.21,112.1,9.66,'1111122,1111122,1111122' 
TABS,ioos:station:wmo:42047:1,2019-04-07T23:30:00Z,27.8966,-93.5973,4.0,10.0,114.2,11.74,'1111122,1111122,1111122' 
TABS,ioos:station:wmo:42047:1,2019-04-08T04:00:00Z,27.8966,-93.5973,4.0,6.79,144.5,8.29,'1111122,1111122,1111122' 
TABS,ioos:station:wmo:42047:1,2019-04-08T05:00:00Z,27.8966,-93.5973,4.0,8.54,165.7,9.77,'1111122,1111122,1111122' 
TABS,ioos:station:wmo:42047:1,2019-04-08T06:00:00Z,27.8966,-93.5973,4.0,7.51,204.0,9.74,'1111122,1111122,1111122' 
TABS,ioos:station:wmo:42047:1,2019-04-08T07:00:00Z,27.8966,-93.5973,4.0,7.54,223.8,9.59,'1111122,1111122,1111122' 
TABS,ioos:station:wmo:42047:1,2019-04-08T08:00:00Z,27.8966,-93.5973,4.0,8.42,219.1,9.61,'1111122,1111122,1111122' 
TABS,ioos:station:wmo:42047:1,2019-04-08T09:00:00Z,27.8966,-93.5973,4.0,8.63,229.1,10.22,'1111122,1111122,1111122' 
TABS,ioos:station:wmo:42047:1,2019-04-08T10:00:00Z,27.8966,-93.5973,4.0,9.97,217.2,11.93,'1111122,1111122,1111122' 
TABS,ioos:station:wmo:42047:1,2019-04-08T11:00:00Z,27.8966,-93.5973,4.0,11.27,198.6,13.11,'1111122,1111122,1111122' 
TABS,ioos:station:wmo:42047:1,2019-04-08T12:00:00Z,27.8966,-93.5973,4.0,12.31,223.2,14.45,'1111122,1111122,1111122' 
TABS,ioos:station:wmo:42047:1,2019-04-08T13:00:00Z,27.8966,-93.5973,4.0,11.53,245.0,13.87,'1111122,1111122,1111122' 
TABS,ioos:station:wmo:42047:1,2019-04-08T14:00:00Z,27.8966,-93.5973,4.0,10.47,254.7,12.37,'1111122,1111122,1111122' 
TABS,ioos:station:wmo:42047:1,2019-04-08T15:00:00Z,27.8966,-93.5973,4.0,10.13,256.6,11.74,'1111122,1111122,1111122' 
TABS,ioos:station:wmo:42047:1,2019-04-08T16:00:00Z,27.8966,-93.5973,4.0,11.68,260.3,14.03,'1111122,1111122,1111122' 
TABS,ioos:station:wmo:42047:1,2019-04-08T17:00:00Z,27.8966,-93.5973,4.0,9.09,259.8,11.3,'1111122,1111122,1111122' 
TABS,ioos:station:wmo:42047:1,2019-04-08T18:00:00Z,27.8966,-93.5973,4.0,8.45,260.8,10.11,'1111122,1111122,1111122' 
TABS,ioos:station:wmo:42047:1,2019-04-08T19:00:00Z,27.8966,-93.5973,4.0,10.49,266.5,12.3,'1111122,1111122,1111122' 
TABS,ioos:station:wmo:42047:1,2019-04-08T20:00:00Z,27.8966,-93.5973,4.0,9.11,267.5,10.64,'1111122,1111122,1111122' 
TABS,ioos:station:wmo:42047:1,2019-04-08T21:00:00Z,27.8966,-93.5973,4.0,8.33,264.5,9.71,'1111122,1111122,1111122' 
TABS,ioos:station:wmo:42047:1,2019-04-08T22:00:00Z,27.8966,-93.5973,4.0,7.38,281.6,8.6,'1111122,1111122,1111122' 
TABS,ioos:station:wmo:42047:1,2019-04-08T23:00:00Z,27.8966,-93.5973,4.0,5.13,276.9,6.11,'1111122,1111122,1111122' 
TABS,ioos:station:wmo:42047:1,2019-04-08T23:30:00Z,27.8966,-93.5973,4.0,5.46,278.9,6.47,'1111122,1111122,1111122' 
TABS,ioos:station:wmo:42047:1,2019-04-09T04:00:00Z,27.8966,-93.5973,4.0,3.12,226.4,3.75,'1111122,1111122,1111122' 
TABS,ioos:station:wmo:42047:1,2019-04-09T05:00:00Z,27.8966,-93.5973,4.0,4.6,230.5,5.71,'1111122,1111122,1111122' 
TABS,ioos:station:wmo:42047:1,2019-04-09T06:00:00Z,27.8966,-93.5973,4.0,5.98,237.2,7.08,'1111122,1111122,1111122' 
TABS,ioos:station:wmo:42047:1,2019-04-09T07:00:00Z,27.8966,-93.5973,4.0,5.82,247.6,6.72,'1111122,1111122,1111122' 
TABS,ioos:station:wmo:42047:1,2019-04-09T08:00:00Z,27.8966,-93.5973,4.0,5.71,246.5,6.52,'1111122,1111122,1111122' 
TABS,ioos:station:wmo:42047:1,2019-04-09T09:00:00Z,27.8966,-93.5973,4.0,5.78,245.8,6.52,'1111122,1111122,1111122' 
TABS,ioos:station:wmo:42047:1,2019-04-09T10:00:00Z,27.8966,-93.5973,4.0,5.82,245.3,6.9,'1111122,1111122,1111122' 
TABS,ioos:station:wmo:42047:1,2019-04-09T11:00:00Z,27.8966,-93.5973,4.0,6.16,251.9,7.13,'1111122,1111122,1111122' 
TABS,ioos:station:wmo:42047:1,2019-04-09T12:00:00Z,27.8966,-93.5973,4.0,6.08,251.8,6.94,'1111122,1111122,1111122' 
TABS,ioos:station:wmo:42047:1,2019-04-09T13:00:00Z,27.8966,-93.5973,4.0,6.21,257.0,7.31,'1111122,1111122,1111122' 
TABS,ioos:station:wmo:42047:1,2019-04-09T14:00:00Z,27.8966,-93.5973,4.0,6.48,252.1,7.65,'1111122,1111122,1111122' 
TABS,ioos:station:wmo:42047:1,2019-04-09T15:00:00Z,27.8966,-93.5973,4.0,6.48,270.3,7.82,'1111122,1111122,1111122' 
TABS,ioos:station:wmo:42047:1,2019-04-09T16:00:00Z,27.8966,-93.5973,4.0,7.13,266.1,8.12,'1111122,1111122,1111122' 
TABS,ioos:station:wmo:42047:1,2019-04-09T17:00:00Z,27.8966,-93.5973,4.0,6.63,273.9,7.53,'1111122,1111122,1111122' 
TABS,ioos:station:wmo:42047:1,2019-04-09T18:00:00Z,27.8966,-93.5973,4.0,7.03,272.9,8.12,'1111122,1111122,1111122' 
TABS,ioos:station:wmo:42047:1,2019-04-09T19:00:00Z,27.8966,-93.5973,4.0,6.16,269.2,7.51,'1111122,1111122,1111122' 
TABS,ioos:station:wmo:42047:1,2019-04-09T20:00:00Z,27.8966,-93.5973,4.0,6.3,275.9,7.52,'1111122,1111122,1111122' 
TABS,ioos:station:wmo:42047:1,2019-04-09T21:00:00Z,27.8966,-93.5973,4.0,6.37,283.8,7.16,'1111122,1111122,1111122' 
TABS,ioos:station:wmo:42047:1,2019-04-09T22:00:00Z,27.8966,-93.5973,4.0,5.28,282.8,6.34,'1111122,1111122,1111122' 
TABS,ioos:station:wmo:42047:1,2019-04-09T22:30:00Z,27.8966,-93.5973,4.0,5.08,278.3,5.98,'1111122,1111122,1111122' 
TABS,ioos:station:wmo:42047:1,2019-04-09T23:30:00Z,27.8966,-93.5973,4.0,5.35,272.2,6.29,'1111122,1111122,1111122' 
TABS,ioos:station:wmo:42047:1,2019-04-10T04:00:00Z,27.8966,-93.5973,4.0,3.6,218.8,4.16,'1111122,1111122,1111122' 
TABS,ioos:station:wmo:42047:1,2019-04-10T05:00:00Z,27.8966,-93.5973,4.0,3.72,197.2,4.4,'1111122,1111122,1111122' 
TABS,ioos:station:wmo:42047:1,2019-04-10T06:00:00Z,27.8966,-93.5973,4.0,3.91,196.5,4.58,'1111122,1111122,1111122' 
TABS,ioos:station:wmo:42047:1,2019-04-10T07:00:00Z,27.8966,-93.5973,4.0,4.15,195.0,4.77,'1111122,1111122,1111122' 
TABS,ioos:station:wmo:42047:1,2019-04-10T08:00:00Z,27.8966,-93.5973,4.0,3.48,208.2,3.95,'1111122,1111122,1111122' 
TABS,ioos:station:wmo:42047:1,2019-04-10T09:00:00Z,27.8966,-93.5973,4.0,3.62,189.9,4.16,'1111122,1111122,1111122' 
TABS,ioos:station:wmo:42047:1,2019-04-10T10:00:00Z,27.8966,-93.5973,4.0,4.62,184.2,5.16,'1111122,1111122,1111122' 
TABS,ioos:station:wmo:42047:1,2019-04-10T11:00:00Z,27.8966,-93.5973,4.0,4.86,188.7,5.55,'1111122,1111122,1111122' 
TABS,ioos:station:wmo:42047:1,2019-04-10T12:00:00Z,27.8966,-93.5973,4.0,5.19,192.9,6.25,'1111122,1111122,1111122' 
TABS,ioos:station:wmo:42047:1,2019-04-10T13:00:00Z,27.8966,-93.5973,4.0,5.22,194.2,5.94,'1111122,1111122,1111122' 
TABS,ioos:station:wmo:42047:1,2019-04-10T14:00:00Z,27.8966,-93.5973,4.0,5.32,191.1,6.32,'1111122,1111122,1111122' 
TABS,ioos:station:wmo:42047:1,2019-04-10T15:00:00Z,27.8966,-93.5973,4.0,4.96,182.6,5.5,'1111122,1111122,1111122' 
TABS,ioos:station:wmo:42047:1,2019-04-10T16:00:00Z,27.8966,-93.5973,4.0,4.94,171.2,5.68,'1111122,1111122,1111122' 
TABS,ioos:station:wmo:42047:1,2019-04-10T17:00:00Z,27.8966,-93.5973,4.0,4.93,173.7,5.7,'1111122,1111122,1111122' 
TABS,ioos:station:wmo:42047:1,2019-04-10T17:30:00Z,27.8966,-93.5973,4.0,5.0,171.3,5.74,'1111122,1111122,1111122' 
TABS,ioos:station:wmo:42047:1,2019-04-10T19:00:00Z,27.8966,-93.5973,4.0,5.72,172.3,6.99,'1111122,1111122,1111122' 
TABS,ioos:station:wmo:42047:1,2019-04-10T19:30:00Z,27.8966,-93.5973,4.0,5.41,174.0,6.15,'1111122,1111122,1111122' 
TABS,ioos:station:wmo:42047:1,2019-04-10T21:00:00Z,27.8966,-93.5973,4.0,4.98,164.6,5.8,'1111122,1111122,1111122' 
TABS,ioos:station:wmo:42047:1,2019-04-10T22:00:00Z,27.8966,-93.5973,4.0,5.47,163.0,6.58,'1111122,1111122,1111122' 
TABS,ioos:station:wmo:42047:1,2019-04-10T23:00:00Z,27.8966,-93.5973,4.0,5.4,163.6,6.5,'1111122,1111122,1111122' 
TABS,ioos:station:wmo:42047:1,2019-04-10T23:30:00Z,27.8966,-93.5973,4.0,5.69,160.7,6.46,'1111122,1111122,1111122' 
TABS,ioos:station:wmo:42047:1,2019-04-11T05:00:00Z,27.8966,-93.5973,4.0,9.26,158.3,10.76,'1111122,1111122,1111122' 
TABS,ioos:station:wmo:42047:1,2019-04-11T06:00:00Z,27.8966,-93.5973,4.0,9.32,158.0,10.71,'1111122,1111122,1111122' 
TABS,ioos:station:wmo:42047:1,2019-04-11T07:00:00Z,27.8966,-93.5973,4.0,10.47,155.1,12.45,'1111122,1111122,1111122' 